Time,TemperatureF,DewpointF,PressureIn,WindDirection,WindDirectionDegrees,WindSpeedMPH,WindSpeedGustMPH,Humidity,HourlyPrecipIn,Conditions,Clouds,dailyrainin,SoftwareType,DateUTC
2013-08-16 00:00:00,37.0,36.0,30.05,NE,50,10.0,-999.0,96,-99.99,,,-99.99,,2013-08-16 00:00:00,
2013-08-16 00:43:00,37.0,36.0,30.05,NE,50,10.0,-999.0,96,-99.99,,,-99.99,,2013-08-16 00:43:00,
2013-08-16 00:52:00,37.0,36.0,30.05,NE,50,10.0,-999.0,96,-99.99,,,-99.99,,2013-08-16 00:52:00,
2013-08-16 01:00:00,38.0,36.0,30.05,ENE,60,11.0,-999.0,93,-99.99,,,-99.99,,2013-08-16 01:00:00,
2013-08-16 01:40:00,-999.0,-99.9,-100.00,ENE,60,11.0,-999.0,-999,-99.99,,,-99.99,,2013-08-16 01:40:00,
2013-08-16 01:54:00,38.0,36.0,30.05,ENE,60,11.0,-999.0,93,-99.99,,,-99.99,,2013-08-16 01:54:00,
2013-08-16 02:00:00,39.0,37.0,30.03,ENE,70,13.0,-999.0,91,-99.99,,,-99.99,,2013-08-16 02:00:00,
2013-08-16 02:42:00,39.0,37.0,30.03,ENE,70,13.0,-999.0,91,-99.99,,,-99.99,,2013-08-16 02:42:00,
2013-08-16 02:51:00,39.0,37.0,30.03,ENE,70,13.0,-999.0,91,-99.99,,,-99.99,,2013-08-16 02:51:00,
2013-08-16 03:00:00,40.0,38.0,30.03,NE,50,15.0,-999.0,95,-99.99,,,-99.99,,2013-08-16 03:00:00,
2013-08-16 03:43:00,40.0,38.0,30.03,NE,50,15.0,-999.0,95,-99.99,,,-99.99,,2013-08-16 03:43:00,
2013-08-16 03:53:00,40.0,38.0,30.03,NE,50,15.0,-999.0,95,-99.99,,,-99.99,,2013-08-16 03:53:00,
2013-08-16 04:00:00,40.0,39.0,30.02,NE,40,13.0,-999.0,97,-99.99,,,-99.99,,2013-08-16 04:00:00,
2013-08-16 04:42:00,40.0,39.0,30.02,NE,40,13.0,-999.0,97,-99.99,,,-99.99,,2013-08-16 04:42:00,
2013-08-16 04:53:00,40.0,39.0,30.02,NE,40,13.0,-999.0,97,-99.99,,,-99.99,,2013-08-16 04:53:00,
2013-08-16 05:42:00,40.0,39.0,30.01,NNE,30,16.0,-999.0,99,-99.99,,,-99.99,,2013-08-16 05:42:00,
2013-08-16 06:00:00,40.0,40.0,30.01,NE,40,15.0,-999.0,100,-99.99,,,-99.99,,2013-08-16 06:00:00,
2013-08-16 07:00:00,40.0,40.0,30.00,NE,50,16.0,-999.0,100,-99.99,,,-99.99,,2013-08-16 07:00:00,
2013-08-16 07:42:00,40.0,40.0,30.00,NE,50,16.0,-999.0,100,-99.99,,,-99.99,,2013-08-16 07:42:00,
2013-08-16 07:52:00,40.0,40.0,30.00,NE,50,16.0,-999.0,100,-99.99,,,-99.99,,2013-08-16 07:52:00,
2013-08-16 08:00:00,41.0,40.0,30.00,NE,50,13.0,-999.0,99,-99.99,,,-99.99,,2013-08-16 08:00:00,
2013-08-16 08:41:00,41.0,40.0,30.00,NE,50,13.0,-999.0,99,-99.99,,,-99.99,,2013-08-16 08:41:00,
2013-08-16 08:52:00,41.0,40.0,30.00,NE,50,13.0,-999.0,99,-99.99,,,-99.99,,2013-08-16 08:52:00,
2013-08-16 09:00:00,40.0,40.0,29.99,ENE,70,14.0,-999.0,100,-99.99,,,-99.99,,2013-08-16 09:00:00,
2013-08-16 09:42:00,40.0,40.0,29.99,ENE,70,14.0,-999.0,100,-99.99,,,-99.99,,2013-08-16 09:42:00,
2013-08-16 09:53:00,40.0,40.0,29.99,ENE,70,14.0,-999.0,100,-99.99,,,-99.99,,2013-08-16 09:53:00,
2013-08-16 10:00:00,40.0,40.0,29.98,ENE,70,16.0,-999.0,100,-99.99,,,-99.99,,2013-08-16 10:00:00,
2013-08-16 10:42:00,40.0,40.0,29.98,ENE,70,16.0,-999.0,100,-99.99,,,-99.99,,2013-08-16 10:42:00,
2013-08-16 10:52:00,40.0,40.0,29.98,ENE,70,16.0,-999.0,100,-99.99,,,-99.99,,2013-08-16 10:52:00,
2013-08-16 11:00:00,40.0,40.0,29.97,ENE,60,16.0,-999.0,100,-99.99,,,-99.99,,2013-08-16 11:00:00,
2013-08-16 11:42:00,40.0,40.0,29.97,ENE,60,16.0,-999.0,100,-99.99,,,-99.99,,2013-08-16 11:42:00,
2013-08-16 11:52:00,40.0,40.0,29.97,ENE,60,16.0,-999.0,100,-99.99,,,-99.99,,2013-08-16 11:52:00,
2013-08-16 12:00:00,40.0,40.0,29.96,ENE,60,15.0,-999.0,99,-99.99,,,-99.99,,2013-08-16 12:00:00,
2013-08-16 12:41:00,40.0,40.0,29.96,ENE,60,15.0,-999.0,99,-99.99,,,-99.99,,2013-08-16 12:41:00,
2013-08-16 12:52:00,40.0,40.0,29.96,ENE,60,15.0,-999.0,99,-99.99,,,-99.99,,2013-08-16 12:52:00,
2013-08-16 13:00:00,40.0,40.0,29.96,ENE,60,16.0,-999.0,100,-99.99,,,-99.99,,2013-08-16 13:00:00,
2013-08-16 13:42:00,40.0,40.0,29.96,ENE,60,16.0,-999.0,100,-99.99,,,-99.99,,2013-08-16 13:42:00,
2013-08-16 13:52:00,40.0,40.0,29.96,ENE,60,16.0,-999.0,100,-99.99,,,-99.99,,2013-08-16 13:52:00,
2013-08-16 14:00:00,40.0,40.0,29.94,ENE,60,16.0,-999.0,100,-99.99,,,-99.99,,2013-08-16 14:00:00,
2013-08-16 14:41:00,40.0,40.0,29.94,ENE,60,16.0,-999.0,100,-99.99,,,-99.99,,2013-08-16 14:41:00,
2013-08-16 14:52:00,40.0,40.0,29.94,ENE,60,16.0,-999.0,100,-99.99,,,-99.99,,2013-08-16 14:52:00,
2013-08-16 15:00:00,40.0,40.0,29.93,ENE,60,16.0,-999.0,99,-99.99,,,-99.99,,2013-08-16 15:00:00,
2013-08-16 15:43:00,40.0,40.0,29.93,ENE,60,16.0,-999.0,99,-99.99,,,-99.99,,2013-08-16 15:43:00,
2013-08-16 15:56:00,40.0,40.0,29.93,ENE,60,16.0,-999.0,99,-99.99,,,-99.99,,2013-08-16 15:56:00,
2013-08-16 16:00:00,40.0,40.0,29.93,ENE,70,16.0,-999.0,99,-99.99,,,-99.99,,2013-08-16 16:00:00,
2013-08-16 16:43:00,40.0,40.0,29.93,ENE,70,16.0,-999.0,99,-99.99,,,-99.99,,2013-08-16 16:43:00,
2013-08-16 16:57:00,40.0,40.0,29.93,ENE,70,16.0,-999.0,99,-99.99,,,-99.99,,2013-08-16 16:57:00,
2013-08-16 17:00:00,40.0,40.0,29.93,ENE,70,14.0,-999.0,98,-99.99,,,-99.99,,2013-08-16 17:00:00,
2013-08-16 17:47:00,40.0,40.0,29.93,ENE,70,14.0,-999.0,98,-99.99,,,-99.99,,2013-08-16 17:47:00,
2013-08-16 18:00:00,40.0,39.0,29.92,ENE,60,15.0,-999.0,99,-99.99,,,-99.99,,2013-08-16 18:00:00,
2013-08-16 18:50:00,-999.0,-99.9,29.92,ENE,60,15.0,-999.0,99,-99.99,,,-99.99,,2013-08-16 18:50:00,
2013-08-16 21:00:00,39.0,39.0,29.91,ENE,60,13.0,-999.0,100,-99.99,,,-99.99,,2013-08-16 21:00:00,
2013-08-16 21:53:00,39.0,39.0,29.91,ENE,60,13.0,-999.0,100,-99.99,,,-99.99,,2013-08-16 21:53:00,
2013-08-16 22:00:00,40.0,40.0,29.90,NE,50,14.0,-999.0,100,-99.99,,,-99.99,,2013-08-16 22:00:00,
2013-08-16 22:43:00,40.0,40.0,29.90,NE,50,14.0,-999.0,100,-99.99,,,-99.99,,2013-08-16 22:43:00,
2013-08-16 22:52:00,40.0,40.0,29.90,NE,50,14.0,-999.0,100,-99.99,,,-99.99,,2013-08-16 22:52:00,
2013-08-16 23:00:00,40.0,40.0,29.89,NE,50,11.0,-999.0,100,-99.99,,,-99.99,,2013-08-16 23:00:00,
2013-08-16 23:41:00,40.0,40.0,29.89,NE,50,11.0,-999.0,100,-99.99,,,-99.99,,2013-08-16 23:41:00,
2013-08-16 23:52:00,40.0,40.0,29.89,NE,50,11.0,-999.0,100,-99.99,,,-99.99,,2013-08-16 23:52:00,